This demonstration page uses our WeatherBlox Daily Observations layout. Learn more.

Left ArrowRight Arrow

39.01783, -85.05884

Hourly Observations for February 23, 2017

Temp ( °F °C ) Dew Point ( °F °C ) Humidity (%) Winds ( mph kmh ) Pressure ( in mb ) Visibility ( mi km ) Precip ( " mm )
12:52 am 00:52 Partly Cloudy 58 14.4 55 12.8 90 90 S 8 13 29.77 1008 10 16 0.00 0.00
1:52 am 01:52 Mostly Clear 58 14.4 55 12.8 90 90 SSW 7 11 29.76 1008 10 16 0.00 0.00
2:52 am 02:52 Cloudy 57 13.9 55 12.8 93 93 S 6 9 29.77 1008 10 16 0.00 0.00
3:52 am 03:52 Mostly Cloudy 58 14.4 56 13.3 93 93 SSW 5 7 29.78 1008 10 16 0.00 0.00
4:52 am 04:52 Cloudy 60 15.6 56 13.3 86 86 SSW 7 11 29.78 1009 10 16 0.00 0.00
5:52 am 05:52 Cloudy 59 15 56 13.3 90 90 SSW 9 15 29.79 1009 10 16 0.00 0.00
6:52 am 06:52 Cloudy 59 15 55 12.8 87 87 S 8 13 29.79 1009 10 16 0.00 0.00
7:52 am 07:52 Mostly Cloudy 59 15 56 13.3 90 90 SSW 9 15 29.80 1009 10 16 0.00 0.00
8:52 am 08:52 Mostly Cloudy 60 15.6 56 13.3 86 86 SSW 13 20 29.80 1009 10 16 0.00 0.00
9:52 am 09:52 Partly Cloudy 62 16.7 57 13.9 84 84 SSW 17 28 29.79 1009 10 16 0.00 0.00
10:52 am 10:52 Mostly Cloudy 63 17.2 57 13.9 81 81 SSW 14 22 29.79 1009 10 16 0.00 0.00
11:52 am 11:52 Mostly Cloudy 65 18.3 57 13.9 76 76 SW 7 11 29.79 1009 10 16 0.00 0.00
12:52 pm 12:52 Cloudy 68 20 57 13.9 68 68 SW 8 13 29.77 1008 10 16 0.00 0.00
1:16 pm 13:16 Cloudy 68 20 57 14 69 69 WSW 7 11 29.74 1007 10 16 0.00 0.00
1:18 pm 13:18 Cloudy 68 20 57 14 69 69 WSW 7 11 29.74 1007 10 16 0.00 0.00
1:52 pm 13:52 Cloudy 69 20.6 56 13.3 63 63 SW 9 15 29.74 1007 10 16 0.00 0.00
2:52 pm 14:52 Cloudy 68 20 56 13.3 65 65 S 13 20 29.74 1007 10 16 0.00 0.00
3:52 pm 15:52 Cloudy 69 20.6 55 12.8 61 61 SSW 15 24 29.73 1007 10 16 0.00 0.00
4:52 pm 16:52 Cloudy 68 20 55 12.8 63 63 S 8 13 29.74 1007 10 16 0.00 0.00
5:52 pm 17:52 Cloudy 67 19.4 56 13.3 68 68 SSW 6 9 29.75 1008 10 16 0.00 0.00
6:52 pm 18:52 Cloudy 63 17.2 56 13.3 78 78 SSE 7 11 29.75 1008 10 16 0.00 0.00
7:52 pm 19:52 Cloudy 63 17.2 56 13.3 78 78 SSE 7 11 29.75 1007 10 16 0.00 0.00
8:52 pm 20:52 Cloudy 64 17.8 57 13.9 78 78 SSE 10 17 29.74 1007 10 16 0.00 0.00
9:52 pm 21:52 Partly Cloudy 63 17.2 57 13.9 81 81 SSE 13 20 29.74 1007 10 16 0.00 0.00
10:52 pm 22:52 Partly Cloudy 62 16.7 56 13.3 80 80 SSE 12 19 29.72 1007 10 16 0.00 0.00
11:52 pm 23:52 Mostly Cloudy 62 16.7 56 13.3 80 80 SSE 10 17 29.72 1006 10 16 0.00 0.00

Powered by AerisWeather